• In Uzbekistan
  • List of Countries
  • For 7 days
  • Water Temperature
  • Satellite Maps
  • Weather Map
  • Weather Widgets
  • user-avatar
    Login

    Hourly Weather Vitre

    Today, 24 November, Friday

    Time Temperature Precipitation Wind Pressure Humidity
    00:00 +12°C° 0 mm 8 mps 746 mmHg 89%
    01:00 +11°C° 0.4 mm 7 mps 747 mmHg 89%
    02:00 +11°C° 0.4 mm 6 mps 747 mmHg 90%
    03:00 +12°C° 0.4 mm 5 mps 747 mmHg 90%
    04:00 +11°C° 0 mm 4 mps 747 mmHg 92%
    05:00 +10°C° 0 mm 3 mps 748 mmHg 94%
    06:00 +9°C° 0 mm 1 mps 748 mmHg 95%
    07:00 +9°C° 0 mm 1 mps 749 mmHg 93%
    08:00 +9°C° 0 mm 1 mps 749 mmHg 91%
    09:00 +10°C° 0 mm 1 mps 749 mmHg 89%
    10:00 +10°C° 0 mm 2 mps 750 mmHg 83%
    11:00 +12°C° 0 mm 2 mps 750 mmHg 77%
    12:00 +12°C° 0 mm 3 mps 750 mmHg 71%
    13:00 +11°C° 0 mm 3 mps 750 mmHg 72%
    14:00 +11°C° 0 mm 3 mps 750 mmHg 73%
    15:00 +11°C° 0 mm 3 mps 750 mmHg 74%
    16:00 +10°C° 0.1 mm 3 mps 750 mmHg 78%
    17:00 +9°C° 0.1 mm 2 mps 750 mmHg 82%
    18:00 +8°C° 0.1 mm 2 mps 750 mmHg 87%
    19:00 +8°C° 0 mm 2 mps 750 mmHg 87%
    20:00 +7°C° 0 mm 2 mps 750 mmHg 88%
    21:00 +7°C° 0 mm 2 mps 750 mmHg 88%
    22:00 +7°C° 0 mm 3 mps 750 mmHg 88%
    23:00 +5°C° 0 mm 3 mps 750 mmHg 88%

    Tomorrow, 25 November, Saturday

    Time Temperature Precipitation Wind Pressure Humidity
    00:00 +5°C° 0 mm 3 mps 750 mmHg 88%
    01:00 +4°C° 0.1 mm 3 mps 750 mmHg 89%
    02:00 +4°C° 0.1 mm 3 mps 750 mmHg 89%
    03:00 +4°C° 0.1 mm 3 mps 750 mmHg 90%
    04:00 +4°C° 0.2 mm 4 mps 751 mmHg 89%
    05:00 +4°C° 0.2 mm 4 mps 751 mmHg 88%
    06:00 +4°C° 0.2 mm 4 mps 752 mmHg 87%
    07:00 +4°C° 0.2 mm 4 mps 753 mmHg 83%
    08:00 +5°C° 0.2 mm 5 mps 754 mmHg 80%
    09:00 +5°C° 0.2 mm 5 mps 755 mmHg 76%
    10:00 +5°C° 0.1 mm 6 mps 755 mmHg 70%
    11:00 +5°C° 0.1 mm 6 mps 756 mmHg 63%
    12:00 +7°C° 0.1 mm 6 mps 757 mmHg 57%
    13:00 +7°C° 0.1 mm 5 mps 757 mmHg 58%
    14:00 +6°C° 0.1 mm 5 mps 757 mmHg 59%
    15:00 +6°C° 0.1 mm 4 mps 758 mmHg 60%
    16:00 +5°C° 0.1 mm 4 mps 758 mmHg 65%
    17:00 +4°C° 0.1 mm 3 mps 758 mmHg 70%
    18:00 +3°C° 0.1 mm 3 mps 759 mmHg 74%
    19:00 +3°C° 0.1 mm 3 mps 759 mmHg 76%
    20:00 +2°C° 0.1 mm 3 mps 760 mmHg 77%
    21:00 +2°C° 0.1 mm 3 mps 760 mmHg 79%
    22:00 +2°C° 0 mm 3 mps 761 mmHg 79%
    23:00 +2°C° 0 mm 3 mps 761 mmHg 80%

    Day after tomorrow, 26 November, Sunday

    Time Temperature Precipitation Wind Pressure Humidity
    00:00 +1°C° 0 mm 3 mps 761 mmHg 80%
    01:00 +1°C° 0 mm 3 mps 762 mmHg 80%
    02:00 +1°C° 0 mm 3 mps 762 mmHg 80%
    03:00 +1°C° 0 mm 3 mps 762 mmHg 80%
    04:00 +1°C° 0.1 mm 3 mps 762 mmHg 81%
    05:00 +1°C° 0.1 mm 3 mps 762 mmHg 82%
    06:00 +1°C° 0.1 mm 3 mps 762 mmHg 83%
    07:00 +2°C° 0.1 mm 3 mps 763 mmHg 81%
    08:00 +3°C° 0.1 mm 3 mps 763 mmHg 80%
    09:00 +3°C° 0.1 mm 3 mps 764 mmHg 79%
    10:00 +4°C° 0.1 mm 3 mps 764 mmHg 73%
    11:00 +7°C° 0.1 mm 3 mps 764 mmHg 67%
    12:00 +8°C° 0.1 mm 3 mps 764 mmHg 61%
    13:00 +8°C° 0.1 mm 3 mps 764 mmHg 62%
    14:00 +8°C° 0.1 mm 3 mps 764 mmHg 64%
    15:00 +7°C° 0.1 mm 2 mps 764 mmHg 66%
    16:00 +7°C° 0 mm 2 mps 764 mmHg 69%
    17:00 +6°C° 0 mm 2 mps 764 mmHg 72%
    18:00 +5°C° 0 mm 2 mps 765 mmHg 75%
    19:00 +5°C° 0 mm 2 mps 765 mmHg 76%
    20:00 +5°C° 0 mm 2 mps 765 mmHg 78%
    21:00 +4°C° 0 mm 2 mps 765 mmHg 80%
    22:00 +4°C° 0 mm 2 mps 765 mmHg 81%
    23:00 +4°C° 0 mm 2 mps 765 mmHg 82%

    27 November, Monday

    Time Temperature Precipitation Wind Pressure Humidity
    00:00 +4°C° 0 mm 2 mps 765 mmHg 82%
    01:00 +4°C° 0 mm 2 mps 765 mmHg 83%
    02:00 +4°C° 0 mm 2 mps 765 mmHg 84%
    03:00 +3°C° 0 mm 2 mps 764 mmHg 85%
    04:00 +3°C° 0 mm 2 mps 764 mmHg 86%
    05:00 +3°C° 0 mm 2 mps 764 mmHg 87%
    06:00 +2°C° 0 mm 2 mps 763 mmHg 87%
    07:00 +3°C° 0 mm 2 mps 764 mmHg 86%
    08:00 +2°C° 0 mm 3 mps 764 mmHg 84%
    09:00 +3°C° 0 mm 3 mps 764 mmHg 83%
    10:00 +4°C° 0 mm 3 mps 763 mmHg 77%
    11:00 +6°C° 0 mm 4 mps 763 mmHg 72%
    12:00 +8°C° 0 mm 4 mps 763 mmHg 67%
    13:00 +8°C° 0 mm 4 mps 762 mmHg 68%
    14:00 +9°C° 0 mm 3 mps 761 mmHg 69%
    15:00 +9°C° 0 mm 3 mps 761 mmHg 70%
    16:00 +7°C° 0 mm 3 mps 760 mmHg 74%
    17:00 +5°C° 0 mm 3 mps 760 mmHg 78%
    18:00 +4°C° 0 mm 3 mps 760 mmHg 82%
    19:00 +4°C° 0 mm 3 mps 759 mmHg 83%
    20:00 +4°C° 0 mm 4 mps 759 mmHg 84%
    21:00 +3°C° 0 mm 4 mps 758 mmHg 84%
    22:00 +4°C° 0.1 mm 4 mps 757 mmHg 85%
    23:00 +4°C° 0.1 mm 4 mps 757 mmHg 85%

    28 November, Tuesday

    Time Temperature Precipitation Wind Pressure Humidity
    00:00 +3°C° 0.1 mm 5 mps 756 mmHg 85%
    01:00 +3°C° 0.1 mm 5 mps 755 mmHg 84%
    02:00 +4°C° 0.1 mm 6 mps 754 mmHg 84%
    03:00 +4°C° 0.1 mm 6 mps 753 mmHg 83%
    04:00 +5°C° 0.3 mm 7 mps 752 mmHg 83%
    05:00 +5°C° 0.3 mm 7 mps 751 mmHg 83%
    06:00 +6°C° 0.3 mm 7 mps 750 mmHg 83%
    07:00 +6°C° 1.6 mm 7 mps 749 mmHg 84%
    08:00 +6°C° 1.6 mm 8 mps 748 mmHg 86%
    09:00 +6°C° 1.6 mm 8 mps 748 mmHg 88%
    10:00 +7°C° 0.3 mm 8 mps 747 mmHg 80%
    11:00 +9°C° 0.3 mm 8 mps 747 mmHg 73%
    12:00 +9°C° 0.3 mm 7 mps 746 mmHg 66%
    13:00 +9°C° 0.2 mm 7 mps 746 mmHg 69%
    14:00 +8°C° 0.2 mm 7 mps 746 mmHg 72%
    15:00 +8°C° 0.2 mm 6 mps 746 mmHg 75%
    16:00 +6°C° 0 mm 5 mps 746 mmHg 77%
    17:00 +5°C° 0 mm 4 mps 746 mmHg 79%
    18:00 +4°C° 0 mm 3 mps 747 mmHg 82%
    19:00 +3°C° 0.1 mm 3 mps 747 mmHg 83%
    20:00 +3°C° 0.1 mm 3 mps 747 mmHg 84%
    21:00 +3°C° 0.1 mm 3 mps 747 mmHg 85%
    22:00 +2°C° 0.1 mm 3 mps 747 mmHg 85%
    23:00 +2°C° 0.1 mm 3 mps 747 mmHg 86%

    29 November, Wednesday

    Time Temperature Precipitation Wind Pressure Humidity
    00:00 +2°C° 0.1 mm 3 mps 747 mmHg 86%
    01:00 +1°C° 0.1 mm 4 mps 747 mmHg 85%
    02:00 +1°C° 0.1 mm 4 mps 747 mmHg 84%
    03:00 +1°C° 0.1 mm 4 mps 747 mmHg 83%
    04:00 +2°C° 0.2 mm 5 mps 746 mmHg 83%
    05:00 +3°C° 0.2 mm 6 mps 746 mmHg 83%
    06:00 +3°C° 0.2 mm 6 mps 746 mmHg 82%
    07:00 +4°C° 0.1 mm 7 mps 746 mmHg 81%
    08:00 +4°C° 0.1 mm 7 mps 746 mmHg 81%
    09:00 +4°C° 0.1 mm 8 mps 747 mmHg 80%
    10:00 +5°C° 0.1 mm 8 mps 747 mmHg 77%
    11:00 +5°C° 0.1 mm 9 mps 747 mmHg 74%
    12:00 +6°C° 0.1 mm 9 mps 747 mmHg 71%
    13:00 +5°C° 0 mm 8 mps 748 mmHg 71%
    14:00 +5°C° 0 mm 8 mps 748 mmHg 71%
    15:00 +5°C° 0 mm 7 mps 748 mmHg 71%
    16:00 +4°C° 0 mm 7 mps 748 mmHg 74%
    17:00 +3°C° 0 mm 6 mps 749 mmHg 77%
    18:00 +3°C° 0 mm 5 mps 750 mmHg 79%
    19:00 +3°C° 0 mm 5 mps 750 mmHg 80%
    20:00 +3°C° 0 mm 5 mps 751 mmHg 81%
    21:00 +3°C° 0 mm 5 mps 751 mmHg 81%
    22:00 +2°C° 0 mm 5 mps 752 mmHg 82%
    23:00 +2°C° 0 mm 5 mps 752 mmHg 83%
    Show more